Wind_Speed
38 39 39 40 40 40 40 40 41 40 40 40 40 40 40 40 40 40 40 40 40 40 40 40 40 41 40 40 39 38 38 39 38 39 40 40 41 43 44 44 42 41 39
39 39 40 41 41 41 41 41 41 40 40 40 40 40 40 40 41 42 42 43 43 43 44 44 44 44 44 44 44 42 41 41 41 40 40 41 41 44 46 46 45 43 42
40 41 41 42 42 42 42 42 40 40 40 40 39 39 40 41 42 43 44 45 46 46 46 47 47 48 48 47 47 47 45 44 44 43 41 43 43 45 46 48 47 46 45
42 42 43 43 43 43 42 41 40 40 40 39 39 40 41 42 43 44 46 47 47 48 48 48 49 50 51 51 50 50 50 48 47 48 46 45 45 46 47 49 49 48 47
44 44 45 44 44 43 42 41 41 40 40 39 39 40 41 42 44 45 46 48 49 50 51 51 51 52 53 55 55 54 53 52 50 49 50 48 48 48 48 49 50 50 50
46 46 46 46 44 43 42 41 40 40 39 39 40 40 41 41 43 44 45 46 47 48 50 52 53 53 54 56 58 58 57 56 55 53 53 51 50 50 49 50 51 52 51
47 47 47 46 45 44 42 41 41 40 39 39 39 39 40 41 42 43 43 43 44 45 46 48 49 51 52 56 59 61 61 60 58 56 55 54 53 52 51 51 52 53 53
48 48 48 47 45 44 43 42 41 40 39 39 38 39 39 40 40 40 40 40 41 41 42 44 45 47 49 52 57 61 63 63 62 60 58 57 56 54 54 53 53 55 56
49 49 48 47 46 45 43 42 41 40 39 38 38 39 39 38 38 38 38 38 38 38 38 40 42 44 46 50 54 58 62 64 65 64 61 60 59 57 56 55 55 55 57
49 49 48 48 46 45 43 42 40 39 38 38 38 38 37 37 36 36 35 34 34 33 33 35 37 40 43 47 51 55 59 63 66 66 65 63 62 60 59 57 55 55 56
49 49 49 48 46 45 43 42 40 39 38 38 38 36 36 35 34 32 31 29 28 27 28 29 32 35 39 44 48 52 56 61 65 67 67 65 63 61 60 58 56 54 54
48 49 49 48 46 44 43 41 40 39 38 37 36 35 34 32 30 28 26 24 22 21 21 22 25 29 34 39 44 48 51 56 61 64 66 66 64 62 60 59 58 54 54
48 48 48 48 46 44 42 40 39 38 37 36 34 32 31 29 28 24 22 19 16 14 14 16 20 25 30 34 40 44 47 51 55 59 62 64 64 62 60 59 60 56 54
48 48 48 47 45 43 42 40 38 38 36 34 32 31 29 28 26 22 18 15 11 8 7 10 14 19 25 30 36 39 41 46 51 55 58 61 62 62 61 58 57 57 55
47 47 47 46 44 42 40 39 38 37 35 32 31 29 28 26 23 19 15 11 7 4 3 6 10 16 22 27 31 35 38 41 45 49 53 56 59 60 60 59 58 57 54
47 46 46 45 43 41 39 38 38 36 34 31 30 28 26 23 21 17 13 9 4 1 3 5 8 13 19 23 27 31 35 38 41 45 49 52 56 59 59 58 58 56 54
46 45 44 44 42 40 38 37 35 34 32 31 29 28 25 22 19 15 11 8 3 1 2 4 8 11 15 19 23 27 32 35 38 42 46 49 52 55 56 56 57 56 53
45 44 43 42 41 39 37 36 34 32 31 29 28 26 24 20 17 14 10 6 3 1 1 4 6 9 13 16 20 24 29 34 36 39 43 46 49 52 55 55 55 55 53
44 43 42 41 39 37 35 34 32 31 29 28 26 25 23 20 16 13 9 5 3 1 1 3 5 8 12 14 17 21 26 30 34 37 40 44 47 49 51 53 53 54 54
43 42 40 39 37 35 34 32 30 29 27 26 25 24 22 20 16 12 8 5 3 1 1 3 5 8 11 13 16 20 24 27 30 34 38 41 45 47 49 50 52 52 53
42 40 38 37 35 33 32 30 28 26 26 26 25 23 22 20 17 13 9 5 3 3 3 4 6 8 10 12 15 18 21 24 28 31 35 38 42 45 48 49 51 52 52
40 38 36 35 33 32 29 28 26 24 24 24 24 23 21 20 17 14 10 7 4 5 6 7 8 9 10 12 15 17 20 22 26 30 33 36 40 44 46 48 49 50 51
37 35 34 32 31 29 27 25 24 23 22 23 23 22 22 21 18 15 12 9 6 6 7 8 9 10 11 12 14 16 19 21 24 28 32 35 37 41 44 46 48 48 50
35 33 31 30 29 27 25 23 22 21 20 21 21 21 21 20 20 17 13 9 6 5 5 7 9 10 11 13 14 16 18 20 22 25 29 33 35 39 42 44 46 47 47
32 30 29 27 27 25 23 21 20 19 19 18 19 19 20 21 19 18 16 11 8 5 2 3 6 9 11 13 15 17 18 20 22 24 27 30 33 36 38 41 43 46 46
31 29 27 25 25 23 21 19 18 17 16 16 17 17 18 19 19 18 16 12 10 7 5 2 2 5 8 11 14 17 18 20 21 23 25 27 31 34 36 38 41 44 46
Wind_Direction
323 322 320 318 315 313 310 306 303 299 295 292 288 284 280 277 275 272 269 266 263 260 257 255 252 249 245 243 241 237 232 228 225 222 219 217 214 213 213 212 210 209 207
327 325 323 321 318 315 312 309 305 301 297 294 290 286 282 279 276 274 271 268 266 263 259 255 252 249 246 243 240 238 234 229 225 221 218 216 214 213 213 211 210 209 207
329 328 326 324 321 318 315 311 307 304 300 296 292 288 285 282 279 276 274 271 269 265 262 258 253 249 245 242 238 237 235 231 226 222 218 214 214 212 212 212 210 209 208
331 330 329 326 323 320 317 313 309 306 303 299 295 291 288 285 281 279 276 274 271 267 263 259 254 249 244 240 237 235 234 231 227 223 218 215 213 212 211 212 210 209 208
333 332 331 328 325 322 318 315 311 308 305 301 297 294 291 288 285 282 279 276 273 269 265 260 254 249 244 239 236 233 232 231 228 224 220 217 214 211 210 211 210 210 209
334 333 332 330 326 323 320 317 314 311 307 304 301 298 296 293 290 287 283 280 275 271 266 260 255 249 244 239 234 232 230 229 228 225 221 218 216 214 211 210 209 209 209
334 334 333 331 328 325 322 319 316 313 310 308 305 302 300 297 294 291 287 282 278 272 267 261 255 249 243 238 233 230 227 226 226 224 221 218 216 214 213 210 209 209 209
335 334 334 332 330 326 323 321 319 316 314 312 309 305 303 301 297 293 289 285 281 274 267 260 253 247 241 236 231 227 224 224 223 222 221 218 217 215 214 212 210 209 209
335 335 334 333 331 328 325 323 321 319 317 315 312 309 307 304 300 296 291 287 282 276 268 259 251 244 238 233 228 224 221 220 220 219 219 218 216 216 214 212 211 211 210
336 336 335 334 332 329 327 325 323 322 320 318 316 313 310 308 305 300 294 290 285 276 267 257 248 240 233 229 225 221 219 218 217 217 217 217 216 216 215 213 213 211 210
336 337 336 335 334 331 330 328 327 325 323 321 320 317 315 313 310 306 300 294 287 276 267 255 245 236 229 225 221 218 216 215 215 215 215 216 215 215 213 212 213 212 211
337 337 337 336 335 334 333 332 331 329 327 325 324 322 320 319 317 314 308 301 292 281 267 251 238 230 223 219 216 213 213 213 213 214 214 214 213 213 213 212 211 213 212
337 338 338 337 336 335 335 335 334 333 332 330 329 328 326 326 325 321 317 311 300 286 265 244 232 223 216 212 209 208 210 211 211 211 212 212 212 211 211 211 212 213 211
337 338 339 338 338 337 337 337 337 337 336 334 334 333 332 332 331 329 325 320 313 295 261 230 217 211 206 203 204 205 207 208 209 209 209 210 210 210 210 210 210 210 211
337 338 339 339 339 338 338 339 340 340 340 339 340 339 339 338 338 337 336 330 322 303 240 209 202 200 197 198 201 202 204 205 205 206 207 208 208 208 209 209 209 210 211
337 338 338 338 339 339 339 341 342 343 343 343 343 344 344 344 345 347 349 347 342 308 187 182 186 191 195 197 198 200 202 203 204 204 204 205 206 206 207 208 209 210 211
335 337 338 338 339 339 341 343 344 345 346 347 347 348 349 349 352 355 359 3 14 95 164 179 184 186 191 195 197 199 201 201 202 202 202 203 204 205 206 208 209 209 208
334 335 337 338 338 340 341 343 346 347 349 350 350 352 353 353 355 357 360 6 18 55 159 176 183 188 190 194 197 199 199 199 199 200 201 201 201 202 203 205 206 206 206
332 333 335 337 338 339 341 344 347 349 351 353 353 354 355 355 355 355 354 356 -0 19 148 178 183 187 192 195 195 195 197 197 198 199 200 200 199 200 201 203 204 206 206
329 331 333 335 337 338 341 343 346 349 352 354 355 355 356 357 355 353 349 339 329 305 224 182 182 183 188 192 193 195 196 198 199 199 199 200 199 198 199 200 201 202 204
327 328 330 333 335 336 339 342 345 348 351 354 356 358 357 358 359 356 349 332 296 267 239 215 200 195 193 194 195 198 201 202 200 199 198 199 199 198 199 199 200 202 203
324 325 327 330 333 335 337 341 344 347 350 352 356 358 359 359 357 355 350 333 297 260 242 230 220 212 205 202 201 201 201 202 201 199 198 199 200 200 200 200 201 203 204
321 322 325 328 331 333 336 340 343 346 348 352 355 357 359 360 360 356 351 340 316 279 253 240 229 221 216 210 206 202 201 202 202 203 202 200 200 200 200 202 203 203 204
317 319 322 325 328 331 334 338 342 345 347 351 356 359 2 3 4 2 357 350 337 309 262 235 227 221 216 213 208 205 203 203 203 202 201 200 201 201 201 202 202 202 203
315 317 320 322 325 328 331 335 339 343 348 352 356 0 3 5 8 9 8 8 7 1 326 252 233 228 221 217 213 208 205 203 200 200 200 201 200 200 200 200 200 200 200
313 315 318 320 322 324 327 331 336 341 347 353 357 2 6 7 10 13 13 15 15 13 15 359 245 225 217 214 210 207 205 202 201 200 199 199 198 198 198 198 198 197 197
Height
5765 5758 5752 5745 5739 5733 5727 5721 5716 5711 5706 5702 5699 5696 5694 5692 5691 5691 5692 5693 5695 5697 5699 5702 5704 5708 5711 5715 5718 5722 5726 5732 5737 5742 5749 5754 5760 5766 5773 5779 5785 5792 5798
5757 5750 5743 5736 5730 5723 5716 5710 5704 5699 5694 5690 5686 5683 5681 5679 5678 5677 5677 5678 5679 5681 5684 5687 5690 5693 5698 5702 5706 5711 5715 5720 5727 5732 5738 5745 5751 5757 5764 5771 5777 5784 5791
5750 5743 5735 5728 5720 5713 5706 5699 5693 5688 5682 5678 5674 5670 5668 5665 5663 5662 5661 5662 5663 5664 5666 5669 5673 5677 5682 5687 5693 5698 5703 5709 5715 5721 5727 5734 5741 5747 5755 5762 5769 5776 5783
5743 5735 5727 5719 5711 5704 5696 5689 5683 5677 5671 5666 5661 5658 5654 5651 5649 5647 5645 5645 5645 5646 5648 5651 5655 5659 5665 5670 5677 5683 5690 5696 5703 5710 5716 5723 5730 5737 5744 5752 5760 5768 5776
5736 5727 5719 5711 5702 5694 5687 5679 5672 5666 5660 5654 5649 5645 5641 5637 5634 5631 5629 5627 5626 5626 5628 5630 5634 5639 5645 5652 5660 5667 5675 5682 5690 5697 5705 5711 5719 5726 5734 5742 5751 5759 5767
5728 5720 5711 5702 5694 5685 5677 5670 5662 5655 5649 5643 5637 5632 5627 5622 5618 5614 5611 5609 5607 5606 5607 5609 5612 5618 5625 5632 5640 5649 5658 5667 5676 5684 5692 5700 5708 5716 5724 5732 5741 5750 5759
5721 5712 5703 5694 5685 5676 5668 5660 5652 5645 5638 5631 5625 5619 5614 5608 5603 5598 5594 5591 5589 5587 5587 5588 5591 5597 5603 5611 5620 5629 5640 5650 5660 5670 5679 5688 5696 5706 5714 5722 5731 5740 5749
5714 5704 5695 5686 5676 5667 5659 5650 5642 5634 5627 5620 5613 5607 5601 5594 5588 5583 5578 5575 5572 5569 5568 5569 5572 5577 5583 5591 5600 5610 5621 5633 5645 5656 5666 5675 5683 5693 5702 5712 5720 5729 5737
5706 5697 5687 5678 5668 5659 5650 5641 5633 5625 5617 5609 5602 5595 5588 5582 5575 5569 5564 5560 5556 5553 5552 5552 5555 5559 5565 5573 5582 5593 5604 5615 5626 5639 5650 5660 5671 5681 5690 5700 5709 5719 5728
5699 5689 5679 5670 5660 5650 5641 5632 5623 5615 5607 5599 5592 5584 5577 5570 5563 5556 5550 5545 5541 5538 5536 5537 5539 5543 5549 5556 5565 5576 5587 5598 5610 5623 5635 5647 5658 5668 5678 5689 5700 5710 5719
5692 5682 5672 5662 5652 5642 5633 5623 5615 5606 5598 5590 5582 5574 5566 5559 5552 5544 5538 5533 5529 5526 5524 5524 5526 5530 5535 5543 5552 5562 5573 5583 5594 5607 5620 5633 5645 5656 5667 5678 5689 5700 5710
5685 5675 5664 5654 5644 5635 5625 5616 5607 5598 5589 5581 5572 5565 5557 5550 5542 5535 5528 5523 5519 5516 5514 5514 5516 5520 5525 5532 5541 5551 5560 5571 5582 5594 5607 5620 5633 5646 5657 5668 5678 5689 5699
5678 5668 5657 5647 5637 5628 5618 5609 5600 5591 5582 5573 5565 5557 5550 5543 5535 5528 5522 5517 5512 5509 5508 5508 5510 5513 5518 5525 5533 5542 5551 5561 5572 5583 5596 5609 5621 5634 5645 5656 5667 5677 5687
5671 5661 5651 5641 5631 5621 5612 5603 5594 5585 5576 5567 5559 5552 5544 5537 5530 5524 5518 5513 5509 5506 5505 5505 5507 5510 5515 5521 5528 5536 5545 5554 5563 5574 5585 5597 5610 5622 5635 5646 5657 5667 5677
5665 5655 5645 5636 5626 5616 5607 5598 5589 5580 5571 5563 5555 5548 5541 5534 5527 5521 5516 5511 5508 5506 5505 5506 5507 5510 5514 5519 5525 5533 5540 5548 5557 5567 5577 5589 5601 5613 5625 5636 5647 5658 5668
5659 5650 5640 5631 5621 5612 5603 5594 5584 5576 5567 5559 5552 5545 5538 5531 5525 5520 5515 5512 5509 5508 5507 5507 5509 5511 5514 5518 5524 5530 5537 5544 5552 5561 5571 5582 5593 5605 5616 5627 5638 5649 5660
5653 5645 5636 5626 5617 5608 5599 5591 5582 5573 5565 5557 5550 5543 5536 5530 5525 5520 5517 5514 5511 5510 5510 5510 5511 5513 5515 5519 5523 5529 5535 5541 5549 5557 5566 5576 5586 5597 5608 5619 5630 5640 5651
5648 5639 5631 5622 5613 5605 5596 5588 5579 5571 5564 5556 5549 5542 5536 5530 5526 5521 5518 5516 5514 5513 5513 5513 5513 5514 5517 5520 5524 5528 5534 5540 5547 5554 5562 5571 5580 5591 5601 5612 5623 5633 5643
5642 5634 5626 5617 5609 5601 5593 5585 5577 5570 5562 5555 5548 5542 5536 5531 5526 5522 5520 5517 5516 5515 5515 5515 5515 5516 5518 5521 5524 5528 5533 5539 5545 5551 5558 5566 5575 5585 5595 5605 5615 5625 5635
5636 5629 5621 5614 5606 5598 5591 5583 5576 5569 5562 5555 5549 5542 5537 5531 5527 5523 5520 5518 5517 5517 5516 5516 5517 5518 5519 5522 5525 5528 5533 5537 5543 5548 5555 5562 5571 5580 5589 5599 5609 5619 5628
5630 5623 5616 5609 5602 5595 5588 5581 5574 5568 5561 5555 5549 5543 5537 5532 5527 5523 5521 5519 5518 5517 5517 5517 5518 5519 5520 5522 5525 5528 5532 5536 5540 5546 5552 5559 5566 5575 5584 5593 5602 5612 5621
5624 5617 5611 5605 5599 5592 5586 5579 5573 5567 5561 5555 5549 5543 5538 5532 5527 5524 5521 5518 5517 5516 5516 5517 5517 5519 5520 5522 5525 5527 5531 5534 5538 5544 5549 5556 5563 5570 5579 5588 5596 5605 5614
5617 5612 5606 5601 5595 5589 5583 5577 5572 5566 5560 5555 5549 5543 5538 5533 5528 5524 5520 5518 5516 5515 5515 5515 5516 5517 5519 5521 5523 5526 5529 5532 5536 5541 5546 5553 5559 5566 5574 5582 5591 5599 5608
5610 5606 5601 5596 5591 5586 5580 5575 5570 5565 5560 5555 5549 5544 5539 5533 5528 5524 5520 5517 5515 5513 5513 5513 5514 5515 5517 5519 5521 5523 5527 5530 5534 5538 5543 5549 5555 5562 5569 5577 5585 5594 5602
5604 5600 5595 5591 5587 5582 5577 5573 5568 5564 5559 5554 5550 5545 5540 5535 5530 5525 5520 5517 5515 5513 5512 5512 5512 5513 5514 5516 5518 5521 5524 5527 5531 5535 5540 5546 5552 5558 5565 5572 5580 5588 5597
5597 5594 5590 5586 5582 5578 5574 5570 5566 5563 5559 5554 5550 5546 5541 5536 5531 5527 5522 5519 5516 5514 5512 5511 5511 5511 5511 5513 5515 5517 5521 5524 5528 5533 5538 5543 5549 5555 5561 5568 5576 5584 5592